FLOCK 4G 21

导读

FLOCK 4G 21是美国Planet公司(原行星实验室)研发的“鸽群”(Flock)遥感立方体卫星星座的成员,是一颗3U微小卫星,单颗重量约5千克。它定于2025年1月14日发射,目前归属发射国家暂未公布,运行于近地轨道,承担中等分辨率地球遥感成像任务,可为全球用户提供对地观测数据服务,助力商业遥感、环境监测等领域应用。

Basic Information
目录编号:
62651
目录名称:
FLOCK 4G 21
国际标识:
2025-009AU
轨道中心:
EARTH
卫星名称:
FLOCK 4G 21
卫星全名:
FLOCK 4G 21
卫星状态:
在轨 (已飞行598 天)
发射日期:
2025-01-14 UTC
国别 :
美国 (US)
星等 :
--
Orbit Information
数据来源 国际轨道数据
星历时间: 2026-09-03T12:37:15+0800
1天前
查看轨道信息
半长轴: 6835.533km
偏心率: 0.000244
轨道倾角: 97.394°
近地点辐角 72.248°
升交点赤经 328.762°
平近点角 287.903°
近地点: 455.728km
远地点: 459.064km
周期: 93.739分钟
每日圈数: 15.361874
Detailed Information
使用方式:
暂无
2D Orbit Map
3D Orbit Map
Orbit Altitude Analysis Chart
Orbit Inclination Analysis Chart
Orbit Comprehensive Analysis Chart
View Comprehensive Chart
Conjunction Data List
Event ID Objects TCA Miss Dist (km) Collision Risk Probability Collision Risk Index (CRI) Action
CDM_260905-042605-284206-265121
2026-09-05T
04:26:05+0000
1.204 km
极远距离
8.250867E-6 低风险 0.53
CDM_260905-032006-265106-296221
2026-09-05T
03:20:31+0000
2.984 km
极远距离
1.318511E-6 低风险 0.37
CDM_260828-210906-026006-265122
2026-08-28T
21:09:15+0000
2.283 km
极远距离
1.202262E-6 低风险 0.37
CDM_260904-083206-265106-984521
2026-09-04T
08:32:08+0000
2.841 km
极远距离
1.160966E-6 低风险 0.36
CDM_260828-224306-026006-265122
2026-08-28T
22:43:11+0000
2.712 km
极远距离
9.008364E-7 极低风险 0.34